Regional Weather Roundup
Issued by NWS Wakefield, VA

Home | Current Version | Previous Version | Graphics & Text | Print | Product List | Glossary On
Versions: 1 2 3 4 5 6 7 8 9 10 11 12 13 14 15 16 17 18 19 20 21 22 23 24 25 26 27 28 29 30 31 32 33 34 35 36 37 38 39 40 41 42 43 44 45 46 47 48 49 50
000
ASUS41 KAKQ 221310
RWRAKQ

REGIONAL WEATHER ROUNDUP
NATIONAL WEATHER SERVICE WAKEFIELD VA
900 AM EDT TUE JUL 22 2014

Note: "fair" indicates few or no clouds below 12,000 feet with no
significant weather and/or obstructions to visibility. * = Denotes
station may not report precipitation (e.g., rain,snow,etc.),
thunder or fog.

VAZ042-051-052>054-056-221400-
NORTHERN VIRGINIA

CITY           SKY/WX    TMP DP  RH WIND       PRES   REMARKS
WASH NATIONAL  PTSUNNY   77  69  76 S10       30.20S
DULLES         CLOUDY    73  69  87 S7        30.20S
FORT BELVOIR   PTSUNNY   75  71  87 SE7       30.20F
QUANTICO       PTSUNNY   76  71  85 S8        30.21S
FREDERICKSBRG* CLOUDY    76  72  88 SW3       30.20R
STAFFORD*      CLOUDY    74  74 100 S5        30.24S
WARRENTON      CLOUDY    75  75  99 SE3       30.20S
CULPEPER*      CLOUDY   N/A N/A N/A CALM      30.21R
MANASSAS*      CLOUDY    73  73 100 SE6       30.20S
LEESBURG*      CLOUDY    73  72  94 S7        30.21S
WINCHESTER     MOSUNNY   73  70  88 CALM      30.20S
$$

VAZ048-049-060>072-079>083-221400-
CENTRAL AND SOUTH CENTRAL VIRGINIA...AND NORTH CENTRAL NORTH CAROLINA

CITY           SKY/WX    TMP DP  RH WIND       PRES   REMARKS
RICHMOND       PTSUNNY   76  70  82 CALM      30.20R
CHESTERFIELD*  CLOUDY    72  63  73 CALM      30.22R
HANOVER        CLOUDY    73  70  90 CALM      30.22R
TAPPAHANNOCK*  MOSUNNY   77  69  76 E5        30.21R
CHARLOTTSVILLE PTSUNNY   75  71  87 SE5       30.20S
ORANGE*        CLOUDY    73  70  88 SE5       30.22R
LOUISA*        CLOUDY    73  70  88 CALM      30.20S
FARMVILLE*     CLOUDY    73  73 100 CALM      30.19R
SOUTH HILL*    MOSUNNY   73  73 100 CALM      30.25S VSB 1
ROANOKE RAPIDS CLOUDY    64  63  94 CALM      30.18S
RALEIGH        CLOUDY    75  70  84 E5        30.18S HAZE
$$

VAZ088>098-221400-
SOUTHEAST VIRGINIA

CITY           SKY/WX    TMP DP  RH WIND       PRES   REMARKS
NORFOLK        PTSUNNY   78  70  76 E8        30.18S
VIRGINIA BEACH PTSUNNY   77  72  84 E9        30.18R
NORFOLK NAVAL  PTSUNNY   78  72  81 NE10      30.19S
WEST POINT*    SUNNY     80  71  72 E6        30.21S
NEWPORT NEWS   MOSUNNY   81  71  71 E7        30.19S
LANGLEY AFB    MOSUNNY   79  73  83 E6        30.18S
FORT EUSTIS    MOSUNNY   78  75  90 E6        30.17S
WILLIAMSBURG*  MOSUNNY   79  73  83 CALM      30.20S
FRANKLIN*      MOSUNNY   75  73  94 E5        30.18S
WAKEFIELD      PTSUNNY   77  72  84 CALM      30.19S
$$

VAZ020-022-025-037-045-221400-
WESTERN AND SOUTHWEST VIRGINIA

CITY           SKY/WX    TMP DP  RH WIND       PRES   REMARKS
STAUNTON*      PTSUNNY   74  69  83 SW5       30.23S
HOT SPRINGS VA NOT AVBL
LYNCHBURG      PTSUNNY   74  68  81 S5        30.23R
DANVILLE       CLOUDY    72  70  93 E3        30.21S
MARTINSVILLE   CLOUDY    75  71  88 CALM      30.24S
ROANOKE        CLOUDY    73  70  90 SE6       30.24R
BLACKSBURG     CLOUDY    72  72 100 E3        30.28S
DUBLIN*        CLOUDY    71  71 100 CALM      30.27S
MARION*        MOSUNNY   72  68  87 E7        30.29S
HILLSVILLE*    CLOUDY    69  65  88 S3        30.28S
RICHLANDS*     SUNNY     74  66  75 CALM      30.26S
WISE*          SUNNY     72  63  73 S5        30.27S
ABINGDON*      MOSUNNY   75  68  80 CALM      30.24R
$$

MDZ021>025-VAZ099-100-221400-
SOUTHERN MARYLAND AND THE DELMARVA PENINSULA

CITY           SKY/WX    TMP DP  RH WIND       PRES   REMARKS
PATUXENT RIVER CLOUDY    77  69  76 CALM      30.20R
BAY BRIDGE APT   N/A     77  70  78 SE7       30.20S
LEONARDTOWN    CLOUDY    73  68  83 CALM      30.22S
DOVER          SUNNY     77  63  61 CALM      30.19S
GEORGETOWN     SUNNY     75  68  78 SE3       30.21S
EASTON         SUNNY     77  77 100 CALM      30.24S
CAMBRIDGE      MOSUNNY   77  68  73 CALM      30.20S
SALISBURY      NOT AVBL
OCEAN CITY     SUNNY     74  69  85 E6        30.21R
WALLOPS ISLAND CLOUDY    76  71  85 E7        30.21R
ACCOMACK*        N/A     73  68  83 E7        30.20S
$$

NCZ012>017-030>032-221400-
EASTERN NORTH CAROLINA

CITY           SKY/WX    TMP DP  RH WIND       PRES   REMARKS
ELIZABETH CITY PTSUNNY   78  72  81 E10       30.17S
AHOSKIE*       PTSUNNY   74  69  83 CALM      30.17F
EDENTON*       PTSUNNY   77  74  91 NE5       30.16F
CURRITUCK*     PTSUNNY   79  71  77 NE6       30.18S
KILL DEVIL HLS PTSUNNY   78  75  90 E6        30.15S
MANTEO         NOT AVBL
CAPE HATTERAS  PTSUNNY   78  75  90 SE9       30.14F
GOLDSBORO      CLOUDY    75  75 100 NE6       30.13F
WASHINGTON     CLOUDY    74  72  93 NE5       30.16S
GREENVILLE     CLOUDY    77  73  88 NE6       30.17S
NEW BERN       CLOUDY    78  75  90 NE5       30.15S
WILMINGTON     PTSUNNY   77  74  90 E5        30.11S
$$

VAZ048-221400-
ELSEWHERE

CITY           SKY/WX    TMP DP  RH WIND       PRES   REMARKS
HARRISBURG PA  CLOUDY    75  68  78 S5        30.19S
BALTIMORE      PTSUNNY   75  70  84 VRB3      30.20S
ANNAPOLIS      MOSUNNY   76  70  82 S5        30.20S
ANDREWS AFB    CLOUDY    74  72  92 S7        30.20F
WILMINGTON DE  MOSUNNY   76  70  82 W5        30.21S
PHILADELPHIA   MOSUNNY   76  66  71 SW6       30.20S
WILDWOOD NJ*   SUNNY     75  64  69 CALM      30.22S
ATLANTIC CITY  SUNNY     75  66  73 CALM      30.20F
HENDERSON NC   CLOUDY    74  70  88 E6        30.20S
GREENSBORO     PTSUNNY   73  70  90 NE6       30.20R
ROCKY MOUNT    CLOUDY    75  71  87 E5        30.17S
FAYETTEVILLE   CLOUDY    75  73  93 NE5       30.14S FOG
CHARLOTTE      CLOUDY    73  69  87 E6        30.18R
$$

VAZ100-221400-
MARINE

STATION/POSITION TIME  TEMP    WIND        PRES    WAVE   SWELL
                       AIR SEA DIR/SP/G            HT/PER HT/PER
                 (UTC) (F)     (DEG/KT/KT) (MB)    (FT/S) (FT/S)
44066 TX TWR #4  1300   72 73   40/  2/  2 1022.5F   2/ 7   2/ 7
CAPE MAY NJ      1300   72 74  240/  5/  6 1022.8R
LEWES DE         1300   73 70   80/  2/  2 1022.8R
15NM E FENWICK I 1300   74 75              1023.1R   2/ 7
OCEAN-CITY-INLET 1300   72 70   80/  4/  5 1022.6S
WACHAPREAGUE VA  1300   74 77   70/  8/ 10 1022.5S
THOMAS POINT MD  1300   76 79  160/  4/  6 1023.0F
GOOSES REEF MD   1300   75     150/  4/  6 1023.2S
COVE POINT MD    1300   75     140/  4/  5 1022.6S
SOLOMONS ISLAND  1300      81                N/A
BISHOPS HEAD MD  1300   74 78   80/  5/  5 1022.5S
PINEY POINT MD   1300          100/  4/  5   N/A
POTOMAC MD       1300   77      90/  4/  8 1021.9S
CAMBRIDGE MD     1300   74 80   90/  4/  5 1022.5S
LEWISETTA VA     1300   77 79   50/  2/  3 1022.3F
RAPPAHANNOCK LGT 1300           90/  8/  9 1023.0S
STINGRAY PT      1300   76     110/  6/  8 1021.7R
YORK RVR RNG VA  1300   77     100/  8/  9 1021.7F
YORKTOWN VA      1300   76 79   80/  8/  9 1022.0F
JAMESTOWN VA     1300   76     120/  6/ 10   N/A
DOMINION TERM VA 1300   76      80/  8/ 10 1022.3R
KIPTOPEKE VA     1300      79   90/  9/ 11   N/A
CHES BAY BRIDGE  1300   75 77   50/ 11/ 12 1021.6S
CAPE HENRY VA    1300   75      80/  9/ 10 1021.0F
WILLOUBY STN VA  1300           80/  9/ 10 1021.5S
S CRANEY ISL VA  1300           40/  6/  7 1022.0F
CAPE HENRY BUOY  1300      75                N/A     2/ 6
1ST LANDING BUOY 1300   76      80/  8/ 12 1021.8S
CAPE CHARLES BUO 1300      75                N/A     2/ 7
OFFSHORE WE BUOY 1300      76                N/A     3/ 7
64NM E OF VA BCH 1300   76 77   60/ 10/ 10 1021.5R   3/ 8   3/ 8
DUCK PIER NC     1300   76 74   60/  9/ 10 1020.8S
44056 DUCK FRF   1300                        N/A     2/11
OREGON INLET NC  1300   77 77   80/  5/  8 1020.9F
HATTERAS NC      1300   77 80  110/  8/  9 1020.9S
DIAMOND SHLS NC  1300          VRB 12/ 16  1020.4F   3/ 8   2/ 8
CAPE LOOKOUT NC  1200   76     190/  7/  9 1020.2R
$$



USA.gov is the U.S. government's official web portal to all federal, state and local government web resources and services.